Home > Weather > Lehrte > Past weeks

Flag for Germany Past Weather in Lehrte, Lower Saxony, Germany — Yesterday and Last 2 Weeks

Now
61 °F

Clear.


Feels Like: 61 °F
Forecast: 59 / 78 °F
Wind: 6 mph from Northeast

Location: Hannover

Current Time: May 29, 2016 at 4:02:58 AM

Latest Report: May 29, 2016 at 3:20 AM


Visibility: 10 mi

Pressure: 29.86 "Hg

Humidity: 88%

Dew Point: 57 °F

Location of LehrteLocation

Past Weather in Lehrte — Graph

°F

Lehrte Temperature Yesterday

Maximum temperature yesterday: 73 °F (at 2:50 PM)
Minimum temperature yesterday: 54 °F (at 2:50 AM)
Average temperature yesterday: 64 °F

High & Low Weather Summary for the Past Weeks

 TemperatureHumidityPressure
High81 °F (May 22, 2:20 PM)100% (May 15, 1:50 AM)30.07 "Hg (May 15, 1:50 AM)
Low39 °F (May 16, 5:20 AM)42% (May 22, 12:50 PM)29.71 "Hg (May 14, 2:20 AM)
Average56 °F78%29.93 "Hg
* Reported May 14 2:20 AM — May 29 2:50 AM, Lehrte, Weather by CustomWeather, © 2016

Note: Actual official high and low records may vary slightly from our data, if they occured in-between our weather recording intervals... More about our weather records

Advertising

Lehrte Weather History for the Previous 24 Hours

Scroll right to see more
 ConditionsComfort  
Time TempWeatherWind HumidityBarometerVisibility
2:50 AM
Sun, May 29
61 °FClear.6 mph83%29.86 "Hg10 mi
2:20 AM61 °FClear.8 mph83%29.86 "Hg10 mi
1:50 AM61 °FClear.8 mph83%29.86 "Hg10 mi
1:20 AM61 °FClear.7 mph83%29.86 "Hg10 mi
12:50 AM61 °FClear.7 mph83%29.86 "Hg10 mi
12:20 AM61 °FClear.6 mph83%29.89 "Hg10 mi
11:50 PM
Sat, May 28
63 °FClear.7 mph77%29.89 "Hg10 mi
11:20 PM63 °FClear.6 mph77%29.89 "Hg10 mi
10:50 PM63 °FClear.6 mph77%29.89 "Hg10 mi
10:20 PM64 °FSunny.5 mph73%29.89 "Hg10 mi
9:50 PM64 °FSunny.5 mph73%29.89 "Hg10 mi
9:20 PM66 °FSunny.5 mph68%29.89 "Hg10 mi
8:50 PM68 °FSunny.7 mph64%29.89 "Hg10 mi
8:20 PM70 °FSunny.7 mph60%29.89 "Hg10 mi
7:50 PM70 °FPartly sunny.10 mph60%29.89 "HgN/A
7:20 PM72 °FPartly sunny.12 mph57%29.89 "HgN/A
6:50 PM72 °FPartly sunny.13 mph57%29.89 "HgN/A
6:20 PM72 °FPartly sunny.13 mph57%29.89 "HgN/A
5:50 PM72 °FPartly sunny.13 mph53%29.92 "HgN/A
5:20 PM73 °FPassing clouds.14 mph50%29.92 "HgN/A
4:50 PM73 °FPassing clouds.12 mph50%29.92 "HgN/A
4:20 PM73 °FScattered clouds.10 mph50%29.92 "HgN/A
3:50 PM73 °FScattered clouds.12 mph50%29.92 "HgN/A
3:20 PM72 °FSunny.10 mph57%29.92 "Hg10 mi
2:50 PM73 °FPassing clouds.10 mph53%29.92 "HgN/A
2:20 PM72 °FPassing clouds.8 mph53%29.95 "HgN/A
1:50 PM72 °FScattered clouds.10 mph53%29.95 "HgN/A
1:20 PM72 °FPassing clouds.12 mph57%29.95 "HgN/A
12:50 PM72 °FPassing clouds.8 mph57%29.95 "HgN/A
12:20 PM70 °FPassing clouds.10 mph60%29.95 "HgN/A
11:50 AM70 °FScattered clouds.8 mph60%29.95 "HgN/A
11:20 AM70 °FScattered clouds.10 mph60%29.95 "HgN/A
10:50 AM68 °FScattered clouds.12 mph64%29.98 "HgN/A
10:20 AM66 °FPassing clouds.8 mph73%29.98 "HgN/A
9:50 AM66 °FPassing clouds.5 mph78%29.98 "Hg5 mi
9:20 AM63 °FClear.5 mph88%29.98 "Hg5 mi
8:50 AM61 °FClear.6 mph88%29.98 "Hg4 mi
8:20 AM59 °FClear.7 mph94%29.98 "Hg4 mi
7:50 AM59 °FClear.5 mph88%29.98 "Hg4 mi
7:20 AM57 °FClear.5 mph94%29.98 "Hg4 mi
6:50 AM57 °FClear.5 mph94%29.98 "Hg4 mi
6:20 AM55 °FClear.2 mph100%29.98 "Hg4 mi
5:50 AM55 °FClear.5 mph100%29.98 "Hg4 mi
5:20 AM55 °FClear.5 mph100%29.98 "Hg4 mi
4:50 AM55 °FClear.3 mph94%29.98 "Hg4 mi
4:20 AM55 °FClear.3 mph94%29.98 "Hg4 mi
Weather by CustomWeather, © 2016

See weather overviewHow to use our weather pages